Regional Weather Roundup
Issued by NWS Kansas City/Pleasant Hill, MO

Home | Current Version | Previous Version | Graphics & Text | Print | Product List | Glossary Off
Versions: 1 2 3 4 5 6 7 8 9 10 11 12 13 14 15 16 17 18 19 20 21 22 23 24 25 26 27 28 29 30 31 32 33 34 35 36 37 38 39 40 41 42 43 44 45 46 47 48 49 50

000
ASUS43 KEAX 250704
RWREAX

WEATHER ROUNDUP FOR EASTERN KANSAS AND NORTHWEST MISSOURI
NATIONAL WEATHER SERVICE KANSAS CITY/PLEASANT HILL MO
200 AM CDT MON MAY 25 2015

KSZ040-057-103>105-MOZ028-029-037-043-250800-
...KANSAS CITY METROPOLITAN AREA...

CITY           SKY/WX    TMP DP  RH WIND       PRES   REMARKS
K.C. INTL      LGT RAIN  63  62  97 SW7       29.84R
K.C. DOWNTOWN  LGT RAIN  65  60  84 SW6       29.83R
LEES SUMMIT    CLOUDY    63  61  93 SW7       29.85R
OLATHE - IXD   LGT RAIN  62  61  96 SW6       29.85R
OLATHE - OJC   LGT RAIN  62  61  96 SW6       29.84R
LAWRENCE       LGT RAIN  63  60  90 SE5       29.83F

$$

MOZ001>008-011>017-020>025-030>033-038>040-044>046-053-054-250800-
...NORTHERN AND CENTRAL MISSOURI...

CITY           SKY/WX    TMP DP  RH WIND       PRES   REMARKS
ST. JOSEPH     LGT RAIN  64  62  93 S6        29.82S
MOSBY          DRIZZLE   63  63 100 CALM      29.83S
WARRENSBURG    RAIN      63  61  94 SW3       29.85R
WHITEMAN AFB   LGT RAIN  63  63 100 S6        29.83S
CLINTON        NOT AVBL
SEDALIA        RAIN      64  62  93 SW7       29.85S FOG
WARSAW         NOT AVBL
CHILLICOTHE      N/A     65  63  93 SW3       29.82F
KIRKSVILLE     LGT RAIN  63  63 100 SW7       29.82R FOG

$$

MOZ041-047>049-056>058-063>065-088>090-097-250800-
...EASTERN AND SOUTHERN MISSOURI...

CITY           SKY/WX    TMP DP  RH WIND       PRES   REMARKS
ST. LOUIS INTL CLOUDY    71  65  81 S13G21    29.88S
SPIRIT OF STL  CLOUDY    69  66  90 S7        29.85F
COLUMBIA       CLOUDY    64  63  96 S7        29.84R
JEFFERSON CITY CLOUDY    66  64  93 S5        29.83F
ROLLA          CLOUDY    66  64  93 S10       29.86S
OSAGE BEACH    MOCLDY    64  63  94 S9        29.85F
SPRINGFIELD    CLOUDY    63  61  93 SW12      29.90R
BRANSON        MOCLDY    63  61  94 SW5       29.94S
JOPLIN         CLOUDY    62  61  96 SW12      29.91R
WEST PLAINS    CLOUDY    67  64  90 S8        29.94F

$$

IAZ060-094-KSZ022-034>040-054-083-096-NEZ052-066-093-250800-
...KANSAS...SOUTHEAST NEBRASKA AND IOWA...

CITY           SKY/WX    TMP DP  RH WIND       PRES   REMARKS
TOPEKA         CLOUDY    63  61  93 CALM      29.83R
MANHATTAN      CLOUDY    59  58  96 CALM      29.81F
EMPORIA        CLOUDY    61  59  93 S8        29.83F
CHANUTE        CLOUDY    62  61  96 S12       29.86S
WICHITA        MOCLDY    60  59  96 S10       29.83F
OMAHA          CLOUDY    65  60  84 SW5       29.77S
LINCOLN        CLOUDY    60  59  96 CALM      29.79S
FALLS CITY     LGT RAIN  62  61  96 S8        29.80S
LAMONI         CLOUDY    64  61  90 S7        29.81R
DES MOINES     LGT RAIN  64  61  90 SW10      29.76F

$$




USA.gov is the U.S. government's official web portal to all federal, state and local government web resources and services.